ROMMA est une association bénévole à but non lucratif. Votre soutien est indispensable : ADHERER à ROMMA ou FAIRE un DON

Le Versoud - (38, Isère)

Vallée du Grésivaudan (220 m)   Longitude: 05° 51' 44" E   Latitude: 45° 13' 06" N Station partenaire n°6
 

Détail journalier du     <<     >>

Température Humidité Pression Vent Dir Rafale Dir. rafale Ensol.
Heure (°C) (%) (hPa) (km/h) (km/h) (min)
01:00 24.072101502ESE0
02:00 22.977101500---0
03:00 22.776101600---0
04:00 21.381101500---0
05:00 20.882101500---0
06:00 20.483101500---0
07:00 20.283101600---0
08:00 22.476101600---30
09:00 25.466101602ESE60
10:00 27.658101600---60
11:00 29.352101503ESE60
12:00 30.950101503ESE60
13:00 32.943101403ESE60
14:00 34.438101405ESE60
15:00 36.232101305ESE60
16:00 36.232101205E45
17:00 36.935101205E10
18:00 34.746101106E0
19:00 33.74210121SE11ESE0
20:00 32.047101202SE0
21:00 30.546101202SE10
22:00 28.854101302SE0
23:00 27.755101300---0
minuit 26.465101302SE0

Graphique du 24-07-2019

 

Serveur OMMA